Hourly Weather Al Hillah

Today, 5 December, Saturday

Time Temperature Precipitation Wind Pressure Humidity
00:00 +17°C° 0 mm 2 mps 761 mmHg 57%
01:00 +17°C° 0 mm 2 mps 760 mmHg 57%
02:00 +17°C° 0 mm 2 mps 760 mmHg 57%
03:00 +16°C° 0 mm 2 mps 760 mmHg 59%
04:00 +16°C° 0 mm 2 mps 760 mmHg 59%
05:00 +16°C° 0 mm 2 mps 760 mmHg 60%
06:00 +16°C° 0 mm 2 mps 760 mmHg 61%
07:00 +16°C° 0 mm 1 mps 760 mmHg 58%
08:00 +18°C° 0 mm 1 mps 760 mmHg 54%
09:00 +19°C° 0 mm 1 mps 760 mmHg 51%
10:00 +20°C° 0 mm 1 mps 760 mmHg 48%
11:00 +20°C° 0 mm 1 mps 759 mmHg 44%
12:00 +21°C° 0 mm 1 mps 759 mmHg 41%
13:00 +21°C° 0 mm 1 mps 758 mmHg 39%
14:00 +21°C° 0 mm 2 mps 758 mmHg 38%
15:00 +21°C° 0 mm 2 mps 757 mmHg 37%
16:00 +20°C° 0 mm 2 mps 757 mmHg 39%
17:00 +20°C° 0 mm 2 mps 757 mmHg 41%
18:00 +19°C° 0 mm 3 mps 757 mmHg 43%
19:00 +19°C° 0 mm 2 mps 757 mmHg 45%
20:00 +19°C° 0 mm 2 mps 757 mmHg 46%
21:00 +20°C° 0 mm 1 mps 757 mmHg 47%
22:00 +18°C° 0.3 mm 2 mps 757 mmHg 55%
23:00 +17°C° 0.3 mm 3 mps 757 mmHg 62%

Tomorrow, 6 December, Sunday

Time Temperature Precipitation Wind Pressure Humidity
00:00 +15°C° 0.3 mm 5 mps 757 mmHg 70%
01:00 +16°C° 0.7 mm 3 mps 757 mmHg 74%
02:00 +15°C° 0.7 mm 2 mps 757 mmHg 79%
03:00 +15°C° 0.7 mm 1 mps 757 mmHg 84%
04:00 +15°C° 0 mm 1 mps 757 mmHg 83%
05:00 +15°C° 0 mm 2 mps 757 mmHg 83%
06:00 +15°C° 0 mm 2 mps 757 mmHg 83%
07:00 +16°C° 0 mm 3 mps 757 mmHg 73%
08:00 +16°C° 0 mm 3 mps 758 mmHg 64%
09:00 +17°C° 0 mm 4 mps 758 mmHg 55%
10:00 +17°C° 0 mm 5 mps 758 mmHg 48%
11:00 +19°C° 0 mm 5 mps 758 mmHg 42%
12:00 +20°C° 0 mm 5 mps 758 mmHg 35%
13:00 +20°C° 0 mm 6 mps 757 mmHg 35%
14:00 +20°C° 0 mm 6 mps 757 mmHg 34%
15:00 +20°C° 0 mm 6 mps 757 mmHg 34%
16:00 +19°C° 0 mm 5 mps 757 mmHg 37%
17:00 +19°C° 0 mm 4 mps 758 mmHg 40%
18:00 +18°C° 0 mm 3 mps 758 mmHg 43%
19:00 +17°C° 0 mm 3 mps 758 mmHg 44%
20:00 +17°C° 0 mm 3 mps 758 mmHg 45%
21:00 +16°C° 0 mm 3 mps 759 mmHg 45%
22:00 +16°C° 0 mm 3 mps 759 mmHg 46%
23:00 +16°C° 0 mm 3 mps 759 mmHg 48%

Day after tomorrow, 7 December, Monday

Time Temperature Precipitation Wind Pressure Humidity
00:00 +16°C° 0 mm 3 mps 760 mmHg 49%
01:00 +14°C° 0 mm 3 mps 760 mmHg 50%
02:00 +14°C° 0 mm 3 mps 760 mmHg 51%
03:00 +14°C° 0 mm 4 mps 760 mmHg 52%
04:00 +13°C° 0 mm 4 mps 760 mmHg 52%
05:00 +13°C° 0 mm 3 mps 761 mmHg 52%
06:00 +13°C° 0 mm 3 mps 761 mmHg 53%
07:00 +14°C° 0 mm 3 mps 762 mmHg 50%
08:00 +15°C° 0 mm 4 mps 762 mmHg 48%
09:00 +15°C° 0 mm 4 mps 762 mmHg 46%
10:00 +18°C° 0 mm 4 mps 762 mmHg 41%
11:00 +19°C° 0 mm 4 mps 763 mmHg 37%
12:00 +20°C° 0 mm 5 mps 763 mmHg 33%
13:00 +20°C° 0 mm 5 mps 762 mmHg 31%
14:00 +20°C° 0 mm 5 mps 762 mmHg 30%
15:00 +20°C° 0 mm 5 mps 762 mmHg 29%
16:00 +19°C° 0 mm 4 mps 762 mmHg 32%
17:00 +18°C° 0 mm 3 mps 762 mmHg 35%
18:00 +17°C° 0 mm 3 mps 762 mmHg 39%
19:00 +17°C° 0 mm 3 mps 763 mmHg 40%
20:00 +16°C° 0 mm 2 mps 763 mmHg 42%
21:00 +16°C° 0 mm 2 mps 763 mmHg 43%
22:00 +15°C° 0 mm 2 mps 763 mmHg 44%
23:00 +15°C° 0 mm 2 mps 763 mmHg 45%

8 December, Tuesday

Time Temperature Precipitation Wind Pressure Humidity
00:00 +15°C° 0 mm 1 mps 763 mmHg 46%
01:00 +14°C° 0 mm 1 mps 763 mmHg 46%
02:00 +14°C° 0 mm 1 mps 763 mmHg 46%
03:00 +14°C° 0 mm 1 mps 763 mmHg 46%
04:00 +14°C° 0 mm 1 mps 763 mmHg 45%
05:00 +14°C° 0 mm 1 mps 763 mmHg 45%
06:00 +13°C° 0 mm 1 mps 763 mmHg 45%
07:00 +15°C° 0 mm 1 mps 764 mmHg 42%
08:00 +16°C° 0 mm 1 mps 764 mmHg 38%
09:00 +18°C° 0 mm 1 mps 764 mmHg 35%
10:00 +19°C° 0 mm 1 mps 764 mmHg 33%
11:00 +19°C° 0 mm 2 mps 764 mmHg 32%
12:00 +20°C° 0 mm 2 mps 764 mmHg 30%
13:00 +21°C° 0 mm 2 mps 763 mmHg 30%
14:00 +21°C° 0 mm 2 mps 763 mmHg 30%
15:00 +23°C° 0 mm 2 mps 762 mmHg 30%
16:00 +21°C° 0 mm 2 mps 763 mmHg 33%
17:00 +19°C° 0 mm 2 mps 763 mmHg 37%
18:00 +18°C° 0 mm 2 mps 763 mmHg 40%
19:00 +19°C° 0 mm 1 mps 763 mmHg 41%
20:00 +18°C° 0 mm 1 mps 763 mmHg 43%
21:00 +18°C° 0 mm 1 mps 763 mmHg 45%
22:00 +16°C° 0 mm 1 mps 763 mmHg 46%
23:00 +16°C° 0 mm 1 mps 763 mmHg 47%

9 December, Wednesday

Time Temperature Precipitation Wind Pressure Humidity
00:00 +16°C° 0 mm 1 mps 763 mmHg 47%
01:00 +15°C° 0 mm 1 mps 763 mmHg 48%
02:00 +15°C° 0 mm 1 mps 763 mmHg 48%
03:00 +15°C° 0 mm 1 mps 763 mmHg 49%
04:00 +14°C° 0 mm 1 mps 763 mmHg 49%
05:00 +14°C° 0 mm 1 mps 763 mmHg 50%
06:00 +14°C° 0 mm 1 mps 763 mmHg 50%
07:00 +15°C° 0 mm 1 mps 763 mmHg 46%
08:00 +18°C° 0 mm 1 mps 763 mmHg 42%
09:00 +19°C° 0 mm 1 mps 763 mmHg 38%
10:00 +20°C° 0 mm 1 mps 763 mmHg 37%
11:00 +21°C° 0 mm 1 mps 763 mmHg 35%
12:00 +22°C° 0 mm 1 mps 762 mmHg 34%
13:00 +23°C° 0 mm 1 mps 762 mmHg 33%
14:00 +23°C° 0 mm 1 mps 761 mmHg 32%
15:00 +23°C° 0 mm 1 mps 761 mmHg 31%
16:00 +22°C° 0 mm 1 mps 761 mmHg 34%
17:00 +21°C° 0 mm 1 mps 761 mmHg 38%
18:00 +20°C° 0 mm 1 mps 761 mmHg 41%
19:00 +20°C° 0 mm 1 mps 761 mmHg 42%
20:00 +19°C° 0 mm 1 mps 761 mmHg 43%
21:00 +19°C° 0 mm 1 mps 761 mmHg 44%
22:00 +17°C° 0 mm 2 mps 761 mmHg 45%
23:00 +17°C° 0 mm 2 mps 761 mmHg 45%

10 December, Thursday

Time Temperature Precipitation Wind Pressure Humidity
00:00 +17°C° 0 mm 2 mps 761 mmHg 46%
01:00 +16°C° 0 mm 2 mps 761 mmHg 47%
02:00 +16°C° 0 mm 2 mps 761 mmHg 47%
03:00 +16°C° 0 mm 2 mps 761 mmHg 47%
04:00 +16°C° 0 mm 2 mps 761 mmHg 48%
05:00 +14°C° 0 mm 3 mps 761 mmHg 49%
06:00 +14°C° 0 mm 3 mps 761 mmHg 49%
07:00 +16°C° 0 mm 3 mps 762 mmHg 47%
08:00 +17°C° 0 mm 3 mps 762 mmHg 45%
09:00 +18°C° 0 mm 4 mps 762 mmHg 43%
10:00 +19°C° 0 mm 4 mps 762 mmHg 40%
11:00 +20°C° 0 mm 4 mps 762 mmHg 37%
12:00 +22°C° 0 mm 4 mps 762 mmHg 34%
13:00 +22°C° 0 mm 4 mps 761 mmHg 34%
14:00 +22°C° 0 mm 4 mps 761 mmHg 33%
15:00 +22°C° 0 mm 4 mps 761 mmHg 33%
16:00 +21°C° 0 mm 4 mps 761 mmHg 38%
17:00 +20°C° 0 mm 4 mps 761 mmHg 42%
18:00 +19°C° 0 mm 3 mps 761 mmHg 47%
19:00 +18°C° 0 mm 3 mps 761 mmHg 49%
20:00 +18°C° 0 mm 3 mps 761 mmHg 51%
21:00 +17°C° 0 mm 3 mps 761 mmHg 52%
22:00 +17°C° 0 mm 3 mps 761 mmHg 53%
23:00 +17°C° 0 mm 3 mps 761 mmHg 54%
Show more

We Need Your Consent

Meteoprog and our Service Providers may store and access personal data such as cookies, device identifiers or other similar technologies on your device and process such data to personalise content and ads, as well as provide social media features and to analyse the traffic.

  • Store and/or access information on your device

    Cookies, device identifiers or other information can be stored or accessed on your device for the purposes indicated above.

  • Personalised ads and content, ad and content measurement, audience insights, and products development

    Ads and content can be personalised based on a profile. More data can be added to better personalise ads and content. Ad and content performance can be measured. Insights about the audience who saw the ads and content can be derived. Such data can be used to develop or improve user’s experience, systems and software.

By clicking ‘I Agree’ you will allow the use of indicated cookies, device identifiers, web beacons or other similar technologies. Your settings can be changed in the browser on your device.

For certain purposes, legitimate interests may be relied on, rather than consent. You can read more about this in our Privacy and Cookie Policy.